Time,TemperatureF,DewpointF,PressureIn,WindDirection,WindDirectionDegrees,WindSpeedMPH,WindSpeedGustMPH,Humidity,HourlyPrecipIn,Conditions,Clouds,dailyrainin,SoftwareType,DateUTC
2013-06-18 00:01:00,68.5,64.8,0.00,SSE,158,0.0,0.0,88,0.00,,,0.10,WUHU216HW,2013-06-18 04:01:00,
2013-06-18 00:02:00,68.5,64.8,0.00,SSE,158,0.0,0.0,88,0.00,,,0.00,WUHU216HW,2013-06-18 04:02:00,
2013-06-18 00:07:00,68.5,64.8,0.00,SSE,158,0.0,0.0,88,0.00,,,0.00,WUHU216HW,2013-06-18 04:07:00,
2013-06-18 00:12:00,68.5,64.8,0.00,SSE,158,0.0,0.0,88,0.00,,,0.00,WUHU216HW,2013-06-18 04:12:00,
2013-06-18 00:17:00,68.5,64.8,0.00,SSE,158,0.0,0.0,88,0.00,,,0.00,WUHU216HW,2013-06-18 04:17:00,
2013-06-18 00:22:00,68.5,64.8,0.00,SSE,158,0.0,0.0,88,0.00,,,0.00,WUHU216HW,2013-06-18 04:22:00,
2013-06-18 00:27:00,68.5,64.8,0.00,SSE,158,0.0,0.0,88,0.00,,,0.00,WUHU216HW,2013-06-18 04:27:00,
2013-06-18 00:32:00,68.3,64.6,0.00,SSE,158,0.0,0.0,88,0.00,,,0.00,WUHU216HW,2013-06-18 04:32:00,
2013-06-18 00:37:00,68.3,64.6,0.00,SSE,158,0.0,0.0,88,0.00,,,0.00,WUHU216HW,2013-06-18 04:37:00,
2013-06-18 00:42:00,68.1,64.4,0.00,SSE,158,0.0,0.0,88,0.00,,,0.00,WUHU216HW,2013-06-18 04:42:00,
2013-06-18 00:47:00,68.3,64.6,0.00,SSE,158,0.0,0.0,88,0.00,,,0.00,WUHU216HW,2013-06-18 04:47:00,
2013-06-18 00:52:00,68.1,64.6,0.00,SSE,158,0.0,0.0,88,0.00,,,0.00,WUHU216HW,2013-06-18 04:52:00,
2013-06-18 00:57:00,68.3,64.6,0.00,SSE,158,0.0,0.0,88,0.00,,,0.00,WUHU216HW,2013-06-18 04:57:00,
2013-06-18 01:02:00,68.3,64.4,0.00,SSE,158,0.0,0.0,88,0.00,,,0.00,WUHU216HW,2013-06-18 05:02:00,
2013-06-18 01:07:00,68.1,64.4,0.00,SSE,158,0.0,0.0,88,0.00,,,0.00,WUHU216HW,2013-06-18 05:07:00,
2013-06-18 01:12:00,68.1,64.7,0.00,SSE,158,0.0,0.0,89,0.00,,,0.00,WUHU216HW,2013-06-18 05:12:00,
2013-06-18 01:17:00,68.1,64.7,0.00,SSE,158,0.0,0.0,89,0.00,,,0.00,WUHU216HW,2013-06-18 05:17:00,
2013-06-18 01:22:00,68.1,64.7,0.00,SSE,158,0.0,0.0,89,0.00,,,0.00,WUHU216HW,2013-06-18 05:22:00,
2013-06-18 01:27:00,68.1,64.7,0.00,SSE,158,0.0,0.0,89,0.00,,,0.00,WUHU216HW,2013-06-18 05:27:00,
2013-06-18 01:32:00,68.1,64.7,0.00,SSE,158,0.0,0.0,89,0.00,,,0.00,WUHU216HW,2013-06-18 05:32:00,
2013-06-18 01:37:00,68.1,64.7,0.00,SSE,158,0.0,0.0,89,0.00,,,0.00,WUHU216HW,2013-06-18 05:37:00,
2013-06-18 01:42:00,68.1,64.7,0.00,SSE,158,0.0,0.0,89,0.00,,,0.00,WUHU216HW,2013-06-18 05:42:00,
2013-06-18 01:47:00,68.1,64.7,0.00,SSE,158,0.0,0.0,89,0.00,,,0.00,WUHU216HW,2013-06-18 05:47:00,
2013-06-18 01:52:00,68.0,64.6,0.00,SSE,158,0.0,0.0,89,0.00,,,0.00,WUHU216HW,2013-06-18 05:52:00,
2013-06-18 01:57:00,68.1,64.7,0.00,SSE,158,0.0,0.0,89,0.00,,,0.00,WUHU216HW,2013-06-18 05:57:00,
2013-06-18 02:02:00,68.0,64.6,0.00,SSE,158,0.0,0.0,89,0.00,,,0.00,WUHU216HW,2013-06-18 06:02:00,
2013-06-18 02:07:00,68.0,64.6,0.00,SSE,158,0.0,0.0,89,0.00,,,0.00,WUHU216HW,2013-06-18 06:07:00,
2013-06-18 02:12:00,67.8,64.1,0.00,SSE,158,0.0,0.0,88,0.00,,,0.00,WUHU216HW,2013-06-18 06:12:00,
2013-06-18 02:16:00,67.8,64.1,0.00,SSE,158,0.0,0.0,88,0.00,,,0.00,WUHU216HW,2013-06-18 06:16:00,
2013-06-18 02:22:00,67.8,64.1,0.00,SSE,158,0.0,0.0,88,0.00,,,0.00,WUHU216HW,2013-06-18 06:22:00,
2013-06-18 02:27:00,67.8,64.1,0.00,SSE,158,0.0,0.0,88,0.00,,,0.00,WUHU216HW,2013-06-18 06:27:00,
2013-06-18 02:32:00,67.8,64.1,0.00,SSE,158,0.0,0.0,88,0.00,,,0.00,WUHU216HW,2013-06-18 06:32:00,
2013-06-18 02:37:00,67.6,63.9,0.00,SSE,158,0.0,0.0,88,0.00,,,0.00,WUHU216HW,2013-06-18 06:37:00,
2013-06-18 02:41:00,67.6,64.2,0.00,SSE,158,0.0,0.0,89,0.00,,,0.00,WUHU216HW,2013-06-18 06:41:00,
2013-06-18 02:46:00,67.6,64.2,0.00,SSE,158,0.0,0.0,89,0.00,,,0.00,WUHU216HW,2013-06-18 06:46:00,
2013-06-18 02:51:00,67.6,64.2,0.00,SSE,158,0.0,0.0,89,0.00,,,0.00,WUHU216HW,2013-06-18 06:51:00,
2013-06-18 02:56:00,67.4,64.0,0.00,SSE,158,0.0,0.0,89,0.00,,,0.00,WUHU216HW,2013-06-18 06:56:00,
2013-06-18 03:01:00,67.4,64.0,0.00,SSE,158,0.0,0.0,89,0.00,,,0.00,WUHU216HW,2013-06-18 07:01:00,
2013-06-18 03:06:00,67.4,64.0,0.00,SSE,158,0.0,0.0,89,0.00,,,0.00,WUHU216HW,2013-06-18 07:06:00,
2013-06-18 03:11:00,67.4,64.0,0.00,SSE,158,0.0,0.0,89,0.00,,,0.00,WUHU216HW,2013-06-18 07:11:00,
2013-06-18 03:16:00,67.4,63.8,0.00,SSE,158,0.0,0.0,89,0.00,,,0.00,WUHU216HW,2013-06-18 07:16:00,
2013-06-18 03:21:00,67.2,63.8,0.00,SSE,158,0.0,0.0,89,0.00,,,0.00,WUHU216HW,2013-06-18 07:21:00,
2013-06-18 03:26:00,67.2,63.8,0.00,SSE,158,0.0,0.0,89,0.00,,,0.00,WUHU216HW,2013-06-18 07:26:00,
2013-06-18 03:31:00,67.2,63.8,0.00,SSE,158,0.0,0.0,89,0.00,,,0.00,WUHU216HW,2013-06-18 07:31:00,
2013-06-18 03:36:00,67.2,63.8,0.00,SSE,158,0.0,0.0,89,0.00,,,0.00,WUHU216HW,2013-06-18 07:36:00,
2013-06-18 03:41:00,67.2,63.8,0.00,SSE,158,0.0,0.0,89,0.00,,,0.00,WUHU216HW,2013-06-18 07:41:00,
2013-06-18 03:46:00,67.2,64.2,0.00,SSE,158,0.0,0.0,90,0.00,,,0.00,WUHU216HW,2013-06-18 07:46:00,
2013-06-18 03:51:00,67.2,64.2,0.00,SSE,158,0.0,0.0,90,0.00,,,0.00,WUHU216HW,2013-06-18 07:51:00,
2013-06-18 03:56:00,67.2,64.2,0.00,SSE,158,0.0,0.0,90,0.00,,,0.00,WUHU216HW,2013-06-18 07:56:00,
2013-06-18 04:01:00,67.2,64.2,0.00,SSE,158,0.0,0.0,90,0.00,,,0.00,WUHU216HW,2013-06-18 08:01:00,
2013-06-18 04:06:00,67.2,64.2,0.00,SSE,158,0.0,0.0,90,0.00,,,0.00,WUHU216HW,2013-06-18 08:06:00,
2013-06-18 04:11:00,67.2,64.2,0.00,SSE,158,0.0,0.0,90,0.00,,,0.00,WUHU216HW,2013-06-18 08:11:00,
2013-06-18 04:16:00,67.2,64.2,0.00,SSE,158,0.0,0.0,90,0.00,,,0.00,WUHU216HW,2013-06-18 08:16:00,
2013-06-18 04:21:00,67.2,64.2,0.00,SSE,158,0.0,0.0,90,0.00,,,0.00,WUHU216HW,2013-06-18 08:21:00,
2013-06-18 04:26:00,67.2,64.2,0.00,SSE,158,0.0,0.0,90,0.00,,,0.00,WUHU216HW,2013-06-18 08:26:00,
2013-06-18 04:31:00,67.2,64.2,0.00,SSE,158,0.0,0.0,90,0.00,,,0.00,WUHU216HW,2013-06-18 08:31:00,
2013-06-18 04:36:00,67.2,64.2,0.00,SSE,158,0.0,0.0,90,0.00,,,0.00,WUHU216HW,2013-06-18 08:36:00,
2013-06-18 04:41:00,67.2,64.2,0.00,SSE,158,0.0,0.0,90,0.00,,,0.00,WUHU216HW,2013-06-18 08:41:00,
2013-06-18 04:46:00,67.2,64.2,0.00,SSE,158,0.0,0.0,90,0.00,,,0.00,WUHU216HW,2013-06-18 08:46:00,
2013-06-18 04:51:00,67.2,64.2,0.00,SSE,158,0.0,0.0,90,0.00,,,0.00,WUHU216HW,2013-06-18 08:51:00,
2013-06-18 04:56:00,67.2,64.2,0.00,SSE,158,0.0,0.0,90,0.00,,,0.00,WUHU216HW,2013-06-18 08:56:00,
2013-06-18 05:01:00,67.2,64.2,0.00,SSE,158,0.0,0.0,90,0.00,,,0.00,WUHU216HW,2013-06-18 09:01:00,
2013-06-18 05:06:00,67.2,64.2,0.00,SSE,158,0.0,0.0,90,0.00,,,0.00,WUHU216HW,2013-06-18 09:06:00,
2013-06-18 05:11:00,67.2,64.2,0.00,SSE,158,0.0,0.0,90,0.00,,,0.00,WUHU216HW,2013-06-18 09:11:00,
2013-06-18 05:16:00,67.2,64.2,0.00,SSE,158,0.0,0.0,90,0.00,,,0.00,WUHU216HW,2013-06-18 09:16:00,
2013-06-18 05:21:00,67.2,64.2,0.00,SSE,158,0.0,0.0,90,0.00,,,0.00,WUHU216HW,2013-06-18 09:21:00,
2013-06-18 05:26:00,67.2,64.2,0.00,North,0,0.0,0.0,90,0.00,,,0.00,WUHU216HW,2013-06-18 09:26:00,
2013-06-18 05:31:00,67.2,64.2,0.00,SSE,158,0.0,0.0,90,0.00,,,0.00,WUHU216HW,2013-06-18 09:31:00,
2013-06-18 05:36:00,67.2,64.2,0.00,SSE,158,0.0,0.0,90,0.00,,,0.00,WUHU216HW,2013-06-18 09:36:00,
2013-06-18 05:41:00,67.2,64.2,0.00,SSE,158,0.0,0.0,90,0.00,,,0.00,WUHU216HW,2013-06-18 09:41:00,
2013-06-18 05:46:00,67.2,64.2,0.00,SSE,158,0.0,0.0,90,0.00,,,0.00,WUHU216HW,2013-06-18 09:46:00,
2013-06-18 05:51:00,67.2,64.2,0.00,SSE,158,0.0,0.0,90,0.00,,,0.00,WUHU216HW,2013-06-18 09:51:00,
2013-06-18 05:56:00,67.2,64.2,0.00,SSE,158,0.0,0.0,90,0.00,,,0.00,WUHU216HW,2013-06-18 09:56:00,
2013-06-18 06:01:00,67.2,64.2,0.00,SSE,158,0.0,0.0,90,0.00,,,0.00,WUHU216HW,2013-06-18 10:01:00,
2013-06-18 06:06:00,67.2,64.2,0.00,SSE,158,0.0,0.0,90,0.00,,,0.00,WUHU216HW,2013-06-18 10:06:00,
2013-06-18 06:11:00,67.2,64.2,0.00,SSE,158,0.0,0.0,90,0.00,,,0.00,WUHU216HW,2013-06-18 10:11:00,
2013-06-18 06:16:00,67.2,64.2,0.00,SSE,158,0.0,0.0,90,0.00,,,0.00,WUHU216HW,2013-06-18 10:16:00,
2013-06-18 06:21:00,67.2,64.2,0.00,SSE,158,0.0,0.0,90,0.00,,,0.00,WUHU216HW,2013-06-18 10:21:00,
2013-06-18 06:26:00,67.2,64.2,0.00,SSE,158,0.0,0.0,90,0.00,,,0.00,WUHU216HW,2013-06-18 10:26:00,
2013-06-18 06:31:00,67.2,64.2,0.00,SSE,158,0.0,0.0,90,0.00,,,0.00,WUHU216HW,2013-06-18 10:31:00,
2013-06-18 06:36:00,67.2,64.2,0.00,SSE,158,0.0,0.0,90,0.00,,,0.00,WUHU216HW,2013-06-18 10:36:00,
2013-06-18 06:41:00,67.2,64.2,0.00,SSE,158,0.0,0.0,90,0.00,,,0.00,WUHU216HW,2013-06-18 10:41:00,
2013-06-18 06:46:00,67.2,64.2,0.00,SSE,158,0.0,0.0,90,0.00,,,0.00,WUHU216HW,2013-06-18 10:46:00,
2013-06-18 06:51:00,67.2,64.2,0.00,SSE,158,0.0,0.0,90,0.00,,,0.00,WUHU216HW,2013-06-18 10:51:00,
2013-06-18 06:56:00,67.2,64.2,0.00,SSE,158,0.0,0.0,90,0.00,,,0.00,WUHU216HW,2013-06-18 10:56:00,
2013-06-18 07:01:00,67.2,64.2,0.00,SSE,158,0.0,0.0,90,0.00,,,0.00,WUHU216HW,2013-06-18 11:01:00,
2013-06-18 07:06:00,67.2,64.2,0.00,SSE,158,0.0,0.0,90,0.00,,,0.00,WUHU216HW,2013-06-18 11:06:00,
2013-06-18 07:11:00,67.2,64.2,0.00,SSE,158,0.0,0.0,90,0.00,,,0.00,WUHU216HW,2013-06-18 11:11:00,
2013-06-18 07:16:00,67.2,64.2,0.00,SSE,158,0.0,0.0,90,0.00,,,0.00,WUHU216HW,2013-06-18 11:16:00,
2013-06-18 07:21:00,67.2,64.2,0.00,SSE,158,0.0,0.0,90,0.00,,,0.00,WUHU216HW,2013-06-18 11:21:00,
2013-06-18 07:26:00,67.2,64.2,0.00,SSE,158,0.0,0.0,90,0.00,,,0.00,WUHU216HW,2013-06-18 11:26:00,
2013-06-18 07:31:00,67.4,64.4,0.00,SSE,158,0.0,0.0,90,0.00,,,0.00,WUHU216HW,2013-06-18 11:31:00,
2013-06-18 07:36:00,67.6,64.5,0.00,SSE,158,0.0,0.0,90,0.00,,,0.00,WUHU216HW,2013-06-18 11:36:00,
2013-06-18 07:41:00,67.6,64.5,0.00,SSE,158,0.0,0.0,90,0.00,,,0.00,WUHU216HW,2013-06-18 11:41:00,
2013-06-18 07:46:00,67.8,64.7,0.00,SSE,158,0.0,0.0,90,0.00,,,0.00,WUHU216HW,2013-06-18 11:46:00,
2013-06-18 07:51:00,67.8,64.7,0.00,SSE,158,0.0,0.0,90,0.00,,,0.00,WUHU216HW,2013-06-18 11:51:00,
2013-06-18 07:56:00,68.0,64.9,0.00,SSE,158,0.0,0.0,90,0.00,,,0.00,WUHU216HW,2013-06-18 11:56:00,
2013-06-18 08:01:00,68.1,65.1,0.00,SSE,158,0.0,0.0,90,0.00,,,0.00,WUHU216HW,2013-06-18 12:01:00,
2013-06-18 08:06:00,68.1,65.1,0.00,SSE,158,0.0,0.0,90,0.00,,,0.00,WUHU216HW,2013-06-18 12:06:00,
2013-06-18 08:11:00,68.1,65.1,0.00,SSE,158,0.0,0.0,90,0.00,,,0.00,WUHU216HW,2013-06-18 12:11:00,
2013-06-18 08:16:00,68.3,65.3,0.00,SSE,158,0.0,0.0,90,0.00,,,0.00,WUHU216HW,2013-06-18 12:16:00,
2013-06-18 08:21:00,68.3,65.3,0.00,SSE,158,0.0,0.0,90,0.00,,,0.00,WUHU216HW,2013-06-18 12:21:00,
2013-06-18 08:26:00,68.5,65.4,0.00,SSE,158,0.0,0.0,90,0.00,,,0.00,WUHU216HW,2013-06-18 12:26:00,
2013-06-18 08:31:00,68.5,65.4,0.00,SSE,158,0.0,0.0,90,0.00,,,0.00,WUHU216HW,2013-06-18 12:31:00,
2013-06-18 08:36:00,68.5,65.4,0.00,SSE,158,0.0,0.0,90,0.00,,,0.00,WUHU216HW,2013-06-18 12:36:00,
2013-06-18 08:41:00,68.5,65.4,0.00,SSE,158,0.0,0.0,90,0.00,,,0.00,WUHU216HW,2013-06-18 12:41:00,
2013-06-18 08:46:00,68.5,65.4,0.00,SSE,158,0.0,0.0,90,0.00,,,0.00,WUHU216HW,2013-06-18 12:46:00,
2013-06-18 08:51:00,68.5,65.4,0.00,SSE,158,0.0,0.0,90,0.00,,,0.00,WUHU216HW,2013-06-18 12:51:00,
2013-06-18 08:56:00,68.5,65.4,0.00,SSE,158,0.0,0.0,90,0.00,,,0.00,WUHU216HW,2013-06-18 12:56:00,
2013-06-18 09:01:00,68.5,65.4,0.00,SSE,158,0.0,0.0,90,0.00,,,0.00,WUHU216HW,2013-06-18 13:01:00,
2013-06-18 09:06:00,68.5,65.4,0.00,SSE,158,0.0,0.0,90,0.00,,,0.00,WUHU216HW,2013-06-18 13:06:00,
2013-06-18 09:11:00,68.5,65.4,0.00,SSE,158,0.0,0.0,90,0.00,,,0.00,WUHU216HW,2013-06-18 13:11:00,
2013-06-18 09:16:00,68.5,65.4,0.00,SSE,158,0.0,0.0,90,0.00,,,0.00,WUHU216HW,2013-06-18 13:16:00,
2013-06-18 09:21:00,68.5,65.4,0.00,SSE,158,0.0,0.0,90,0.00,,,0.00,WUHU216HW,2013-06-18 13:21:00,
2013-06-18 09:26:00,68.5,65.4,0.00,SSE,158,0.0,0.0,90,0.00,,,0.00,WUHU216HW,2013-06-18 13:26:00,
2013-06-18 09:31:00,68.5,65.4,0.00,SSE,158,0.0,0.0,90,0.00,,,0.00,WUHU216HW,2013-06-18 13:31:00,
2013-06-18 09:36:00,68.7,65.6,0.00,SSE,158,0.0,0.0,90,0.00,,,0.00,WUHU216HW,2013-06-18 13:36:00,
2013-06-18 09:41:00,68.7,65.6,0.00,SSE,158,0.0,0.0,90,0.00,,,0.00,WUHU216HW,2013-06-18 13:41:00,
2013-06-18 09:46:00,68.7,65.6,0.00,SSE,158,0.0,0.0,90,0.00,,,0.00,WUHU216HW,2013-06-18 13:46:00,
2013-06-18 09:51:00,68.7,65.6,0.00,SSE,158,0.0,0.0,90,0.00,,,0.00,WUHU216HW,2013-06-18 13:51:00,
2013-06-18 09:56:00,68.7,65.6,0.00,SSE,158,0.0,0.0,90,0.00,,,0.00,WUHU216HW,2013-06-18 13:56:00,
2013-06-18 10:01:00,68.7,65.6,0.00,SSE,158,0.0,0.0,90,0.00,,,0.00,WUHU216HW,2013-06-18 14:01:00,
2013-06-18 10:06:00,68.7,65.6,0.00,SSE,158,0.0,0.0,90,0.00,,,0.00,WUHU216HW,2013-06-18 14:06:00,
2013-06-18 10:11:00,68.7,65.6,0.00,SSE,158,0.0,0.0,90,0.00,,,0.00,WUHU216HW,2013-06-18 14:11:00,
2013-06-18 10:16:00,68.9,65.8,0.00,SSE,158,0.0,0.0,90,0.00,,,0.00,WUHU216HW,2013-06-18 14:16:00,
2013-06-18 10:21:00,68.9,65.8,0.00,SSE,158,0.0,0.0,90,0.00,,,0.00,WUHU216HW,2013-06-18 14:21:00,
2013-06-18 10:26:00,69.0,66.0,0.00,SSE,158,0.0,0.0,90,0.02,,,0.02,WUHU216HW,2013-06-18 14:26:00,
2013-06-18 10:31:00,69.0,66.0,0.00,SSE,158,0.0,0.0,90,0.02,,,0.02,WUHU216HW,2013-06-18 14:31:00,
2013-06-18 10:36:00,69.0,66.0,0.00,SSE,158,0.0,0.0,90,0.02,,,0.02,WUHU216HW,2013-06-18 14:36:00,
2013-06-18 10:41:00,69.0,66.0,0.00,SSE,158,0.0,0.0,90,0.02,,,0.02,WUHU216HW,2013-06-18 14:41:00,
2013-06-18 10:46:00,69.0,66.0,0.00,SSE,158,0.0,0.0,90,0.02,,,0.02,WUHU216HW,2013-06-18 14:46:00,
2013-06-18 10:51:00,69.0,66.0,0.00,SSE,158,0.0,0.0,90,0.02,,,0.02,WUHU216HW,2013-06-18 14:51:00,
2013-06-18 10:56:00,69.0,66.0,0.00,SSE,158,0.0,0.0,90,0.02,,,0.02,WUHU216HW,2013-06-18 14:56:00,
2013-06-18 11:01:00,69.2,66.2,0.00,SSE,158,0.0,0.0,90,0.02,,,0.02,WUHU216HW,2013-06-18 15:01:00,
2013-06-18 11:06:00,69.4,66.6,0.00,SSE,158,0.0,0.0,91,0.02,,,0.02,WUHU216HW,2013-06-18 15:06:00,
2013-06-18 11:11:00,69.6,66.8,0.00,SSE,158,0.0,0.0,91,0.02,,,0.02,WUHU216HW,2013-06-18 15:11:00,
2013-06-18 11:16:00,69.6,66.8,0.00,SSE,158,0.0,0.0,91,0.02,,,0.02,WUHU216HW,2013-06-18 15:16:00,
2013-06-18 11:21:00,69.9,67.2,0.00,SSE,158,0.0,0.0,91,0.00,,,0.02,WUHU216HW,2013-06-18 15:21:00,
2013-06-18 11:26:00,70.1,67.4,0.00,SSE,158,0.0,0.0,91,0.00,,,0.02,WUHU216HW,2013-06-18 15:26:00,
2013-06-18 11:31:00,70.5,67.7,0.00,SSE,158,0.0,0.0,91,0.00,,,0.02,WUHU216HW,2013-06-18 15:31:00,
2013-06-18 11:36:00,71.2,68.4,0.00,SSE,158,0.0,0.0,91,0.00,,,0.02,WUHU216HW,2013-06-18 15:36:00,
2013-06-18 11:41:00,71.4,68.6,0.00,NW,315,0.0,0.0,91,0.00,,,0.02,WUHU216HW,2013-06-18 15:41:00,
2013-06-18 11:46:00,71.7,69.0,0.00,NW,315,0.0,0.0,91,0.00,,,0.02,WUHU216HW,2013-06-18 15:46:00,
2013-06-18 11:51:00,72.1,69.0,0.00,NW,315,0.0,0.0,90,0.00,,,0.02,WUHU216HW,2013-06-18 15:51:00,
2013-06-18 11:56:00,72.5,69.0,0.00,NW,315,0.0,0.0,89,0.00,,,0.02,WUHU216HW,2013-06-18 15:56:00,
2013-06-18 12:01:00,72.6,69.2,0.00,NW,315,0.0,0.0,89,0.00,,,0.02,WUHU216HW,2013-06-18 16:01:00,
2013-06-18 12:06:00,72.6,69.2,0.00,NW,315,0.0,0.0,89,0.00,,,0.02,WUHU216HW,2013-06-18 16:06:00,
2013-06-18 12:11:00,73.0,69.2,0.00,NW,315,0.0,0.0,88,0.00,,,0.02,WUHU216HW,2013-06-18 16:11:00,
2013-06-18 12:16:00,73.5,69.8,0.00,NW,315,0.0,0.0,88,0.00,,,0.02,WUHU216HW,2013-06-18 16:16:00,
2013-06-18 12:21:00,74.1,70.0,0.00,NW,315,0.0,0.0,87,0.00,,,0.02,WUHU216HW,2013-06-18 16:21:00,
2013-06-18 12:26:00,74.3,69.8,0.00,SW,225,0.0,0.0,86,0.00,,,0.02,WUHU216HW,2013-06-18 16:26:00,
2013-06-18 12:31:00,74.4,70.0,0.00,WSW,248,0.0,0.0,86,0.00,,,0.02,WUHU216HW,2013-06-18 16:31:00,
2013-06-18 12:36:00,74.4,69.7,0.00,WSW,248,0.0,0.0,85,0.00,,,0.02,WUHU216HW,2013-06-18 16:36:00,
2013-06-18 12:41:00,74.1,69.3,0.00,WSW,248,0.0,0.0,85,0.00,,,0.02,WUHU216HW,2013-06-18 16:41:00,
2013-06-18 12:46:00,73.9,69.1,0.00,WSW,248,0.0,0.0,85,0.00,,,0.02,WUHU216HW,2013-06-18 16:46:00,
2013-06-18 12:51:00,73.7,68.9,0.00,WSW,248,0.0,0.0,85,0.00,,,0.02,WUHU216HW,2013-06-18 16:51:00,
2013-06-18 12:56:00,73.7,68.9,0.00,WSW,248,0.0,0.0,85,0.00,,,0.02,WUHU216HW,2013-06-18 16:56:00,
2013-06-18 13:01:00,73.5,68.8,0.00,WSW,248,0.0,0.0,85,0.00,,,0.02,WUHU216HW,2013-06-18 17:01:00,
2013-06-18 13:06:00,73.5,68.8,0.00,North,0,0.0,0.0,85,0.00,,,0.02,WUHU216HW,2013-06-18 17:06:00,
2013-06-18 13:11:00,73.9,69.6,0.00,SW,225,0.0,0.0,86,0.00,,,0.02,WUHU216HW,2013-06-18 17:11:00,
2013-06-18 13:16:00,74.4,69.7,0.00,SSE,158,0.0,0.0,85,0.00,,,0.02,WUHU216HW,2013-06-18 17:16:00,
2013-06-18 13:21:00,74.8,70.0,0.00,SSE,158,0.0,0.0,85,0.00,,,0.02,WUHU216HW,2013-06-18 17:21:00,
2013-06-18 13:26:00,75.0,70.2,0.00,SE,135,0.0,0.0,85,0.00,,,0.02,WUHU216HW,2013-06-18 17:26:00,
2013-06-18 13:31:00,75.3,70.2,0.00,SSE,158,0.0,0.0,84,0.00,,,0.02,WUHU216HW,2013-06-18 17:31:00,
2013-06-18 13:36:00,75.3,69.9,0.00,SSE,158,0.0,0.0,83,0.00,,,0.02,WUHU216HW,2013-06-18 17:36:00,
2013-06-18 13:41:00,75.3,69.9,0.00,SSE,158,0.0,0.0,83,0.00,,,0.02,WUHU216HW,2013-06-18 17:41:00,
2013-06-18 13:46:00,75.2,69.7,0.00,SSE,158,0.0,0.0,83,0.00,,,0.02,WUHU216HW,2013-06-18 17:46:00,
2013-06-18 13:51:00,75.0,69.5,0.00,SSE,158,0.0,0.0,83,0.00,,,0.02,WUHU216HW,2013-06-18 17:51:00,
2013-06-18 13:56:00,74.8,69.3,0.00,SSE,158,0.0,0.0,83,0.00,,,0.02,WUHU216HW,2013-06-18 17:56:00,
2013-06-18 14:01:00,74.4,69.0,0.00,SSE,158,0.0,0.0,83,0.00,,,0.02,WUHU216HW,2013-06-18 18:01:00,
2013-06-18 14:06:00,74.4,69.0,0.00,SSE,158,0.0,0.0,83,0.00,,,0.02,WUHU216HW,2013-06-18 18:06:00,
2013-06-18 14:11:00,74.4,69.0,0.00,SSE,158,0.0,0.0,83,0.00,,,0.02,WUHU216HW,2013-06-18 18:11:00,
2013-06-18 14:16:00,74.4,69.2,0.00,SSE,158,0.0,0.0,83,0.00,,,0.02,WUHU216HW,2013-06-18 18:16:00,
2013-06-18 14:21:00,74.8,69.3,0.00,SSE,158,0.0,0.0,83,0.00,,,0.02,WUHU216HW,2013-06-18 18:21:00,
2013-06-18 14:26:00,75.0,69.2,0.00,SSE,158,0.0,0.0,82,0.00,,,0.02,WUHU216HW,2013-06-18 18:26:00,
2013-06-18 14:31:00,75.0,69.2,0.00,SSE,158,0.0,0.0,82,0.00,,,0.02,WUHU216HW,2013-06-18 18:31:00,
2013-06-18 14:36:00,75.0,69.2,0.00,SSE,158,0.0,0.0,82,0.00,,,0.02,WUHU216HW,2013-06-18 18:36:00,
2013-06-18 14:41:00,75.0,69.2,0.00,SSE,158,0.0,0.0,82,0.00,,,0.02,WUHU216HW,2013-06-18 18:41:00,
2013-06-18 14:46:00,74.8,69.0,0.00,SSE,158,0.0,0.0,82,0.00,,,0.02,WUHU216HW,2013-06-18 18:46:00,
2013-06-18 14:51:00,74.8,69.0,0.00,SSE,158,0.0,0.0,82,0.00,,,0.02,WUHU216HW,2013-06-18 18:51:00,
2013-06-18 14:56:00,74.8,69.0,0.00,WSW,248,0.0,0.0,82,0.00,,,0.02,WUHU216HW,2013-06-18 18:56:00,
2013-06-18 15:01:00,74.3,68.5,0.00,WNW,293,5.3,5.3,82,0.00,,,0.02,WUHU216HW,2013-06-18 19:01:00,
2013-06-18 15:06:00,73.5,67.7,0.00,NW,315,0.0,5.3,82,0.00,,,0.02,WUHU216HW,2013-06-18 19:06:00,
2013-06-18 15:11:00,72.5,66.7,0.00,NW,315,0.0,6.9,82,0.00,,,0.02,WUHU216HW,2013-06-18 19:11:00,
2013-06-18 15:16:00,71.9,66.3,0.00,NW,315,0.0,6.9,83,0.00,,,0.02,WUHU216HW,2013-06-18 19:16:00,
2013-06-18 15:21:00,71.7,66.3,0.00,NW,315,0.0,1.1,83,0.00,,,0.02,WUHU216HW,2013-06-18 19:21:00,
2013-06-18 15:26:00,71.4,66.3,0.00,NW,315,0.0,0.0,84,0.00,,,0.02,WUHU216HW,2013-06-18 19:26:00,
2013-06-18 15:31:00,71.6,66.4,0.00,North,0,0.0,0.0,84,0.00,,,0.02,WUHU216HW,2013-06-18 19:31:00,
2013-06-18 15:36:00,71.6,66.4,0.00,WNW,293,0.0,0.0,84,0.00,,,0.02,WUHU216HW,2013-06-18 19:36:00,
2013-06-18 15:41:00,71.6,66.6,0.00,NW,315,0.0,0.0,85,0.00,,,0.02,WUHU216HW,2013-06-18 19:41:00,
2013-06-18 15:46:00,71.9,67.0,0.00,North,0,0.0,0.0,85,0.00,,,0.02,WUHU216HW,2013-06-18 19:46:00,
2013-06-18 15:51:00,71.9,67.1,0.00,North,0,0.0,0.0,85,0.00,,,0.02,WUHU216HW,2013-06-18 19:51:00,
2013-06-18 15:56:00,72.1,67.3,0.00,NE,45,0.0,0.0,85,0.00,,,0.02,WUHU216HW,2013-06-18 19:56:00,
2013-06-18 16:01:00,72.3,67.5,0.00,NE,45,0.0,0.0,85,0.00,,,0.02,WUHU216HW,2013-06-18 20:01:00,
2013-06-18 16:06:00,72.6,67.9,0.00,ENE,68,0.0,0.0,85,0.00,,,0.02,WUHU216HW,2013-06-18 20:06:00,
2013-06-18 16:11:00,73.0,68.2,0.00,NNE,23,0.0,0.0,85,0.00,,,0.02,WUHU216HW,2013-06-18 20:11:00,
2013-06-18 16:16:00,73.2,68.4,0.00,North,0,0.0,0.0,85,0.00,,,0.02,WUHU216HW,2013-06-18 20:16:00,
2013-06-18 16:20:00,73.0,67.9,0.00,SE,135,0.0,0.0,84,0.00,,,0.02,WUHU216HW,2013-06-18 20:20:00,
2013-06-18 16:25:00,72.6,67.5,0.00,SE,135,0.0,0.0,84,0.00,,,0.02,WUHU216HW,2013-06-18 20:25:00,
2013-06-18 16:30:00,72.3,67.2,0.00,SSE,158,0.0,0.0,84,0.00,,,0.02,WUHU216HW,2013-06-18 20:30:00,
2013-06-18 16:35:00,72.1,67.0,0.00,SE,135,0.0,0.0,84,0.00,,,0.02,WUHU216HW,2013-06-18 20:35:00,
2013-06-18 16:40:00,71.9,66.8,0.00,SSE,158,0.0,0.0,84,0.00,,,0.02,WUHU216HW,2013-06-18 20:40:00,
2013-06-18 16:45:00,71.7,66.6,0.00,West,270,0.0,0.0,84,0.00,,,0.02,WUHU216HW,2013-06-18 20:45:00,
2013-06-18 16:50:00,71.4,66.3,0.00,NW,315,0.0,0.0,84,0.00,,,0.02,WUHU216HW,2013-06-18 20:50:00,
2013-06-18 16:55:00,71.2,66.1,0.00,NW,315,0.0,0.0,84,0.00,,,0.02,WUHU216HW,2013-06-18 20:55:00,
2013-06-18 17:00:00,70.8,66.1,0.00,WNW,293,0.0,0.0,85,0.00,,,0.02,WUHU216HW,2013-06-18 21:00:00,
2013-06-18 17:05:00,70.8,66.1,0.00,WNW,293,0.0,0.0,85,0.00,,,0.02,WUHU216HW,2013-06-18 21:05:00,
2013-06-18 17:10:00,70.8,66.1,0.00,NW,315,0.0,0.0,85,0.00,,,0.02,WUHU216HW,2013-06-18 21:10:00,
2013-06-18 17:15:00,70.5,65.7,0.00,WNW,293,0.0,0.0,85,0.00,,,0.02,WUHU216HW,2013-06-18 21:15:00,
2013-06-18 17:20:00,70.5,66.0,0.00,NW,315,0.0,1.1,86,0.00,,,0.02,WUHU216HW,2013-06-18 21:20:00,
2013-06-18 17:25:00,70.5,66.0,0.00,SE,135,0.0,1.1,86,0.00,,,0.02,WUHU216HW,2013-06-18 21:25:00,
2013-06-18 17:30:00,70.7,66.2,0.00,West,270,0.0,0.0,86,0.00,,,0.02,WUHU216HW,2013-06-18 21:30:00,
2013-06-18 17:35:00,70.7,66.2,0.00,WNW,293,0.0,0.0,86,0.00,,,0.02,WUHU216HW,2013-06-18 21:35:00,
2013-06-18 17:40:00,70.8,66.4,0.00,WNW,293,0.0,0.0,86,0.00,,,0.02,WUHU216HW,2013-06-18 21:40:00,
2013-06-18 17:45:00,70.8,66.4,0.00,WNW,293,0.0,0.0,86,0.00,,,0.02,WUHU216HW,2013-06-18 21:45:00,
2013-06-18 17:50:00,70.8,66.1,0.00,WNW,293,0.0,0.0,85,0.00,,,0.02,WUHU216HW,2013-06-18 21:50:00,
2013-06-18 17:55:00,70.5,65.9,0.00,WNW,293,0.0,0.0,85,0.00,,,0.02,WUHU216HW,2013-06-18 21:55:00,
2013-06-18 18:00:00,70.5,65.7,0.00,NW,315,0.0,0.0,85,0.00,,,0.02,WUHU216HW,2013-06-18 22:00:00,
2013-06-18 18:05:00,70.3,65.2,0.00,WNW,293,0.0,0.0,84,0.00,,,0.02,WUHU216HW,2013-06-18 22:05:00,
2013-06-18 18:10:00,69.9,64.8,0.00,WNW,293,0.0,0.0,84,0.00,,,0.02,WUHU216HW,2013-06-18 22:10:00,
2013-06-18 18:15:00,69.9,64.8,0.00,North,0,0.0,2.0,84,0.00,,,0.02,WUHU216HW,2013-06-18 22:15:00,
2013-06-18 18:20:00,69.8,64.8,0.00,WNW,293,0.0,6.0,84,0.00,,,0.02,WUHU216HW,2013-06-18 22:20:00,
2013-06-18 18:25:00,69.6,64.1,0.00,NW,315,0.0,6.0,83,0.00,,,0.02,WUHU216HW,2013-06-18 22:25:00,
2013-06-18 18:30:00,69.6,64.1,0.00,West,270,0.0,4.9,83,0.00,,,0.02,WUHU216HW,2013-06-18 22:30:00,
2013-06-18 18:35:00,69.6,64.1,0.00,WNW,293,0.0,4.9,83,0.00,,,0.02,WUHU216HW,2013-06-18 22:35:00,
2013-06-18 18:40:00,69.6,64.1,0.00,SSW,203,0.0,0.6,83,0.00,,,0.02,WUHU216HW,2013-06-18 22:40:00,
2013-06-18 18:45:00,69.4,64.0,0.00,SSE,158,0.0,5.8,83,0.00,,,0.02,WUHU216HW,2013-06-18 22:45:00,
2013-06-18 18:50:00,69.4,64.0,0.00,WNW,293,0.0,5.8,83,0.00,,,0.02,WUHU216HW,2013-06-18 22:50:00,
2013-06-18 18:55:00,69.4,64.0,0.00,WNW,293,0.0,0.0,83,0.00,,,0.02,WUHU216HW,2013-06-18 22:55:00,
2013-06-18 19:00:00,69.4,64.0,0.00,WNW,293,0.0,0.0,83,0.00,,,0.02,WUHU216HW,2013-06-18 23:00:00,
2013-06-18 19:05:00,69.4,64.0,0.00,South,180,0.0,0.0,83,0.00,,,0.02,WUHU216HW,2013-06-18 23:05:00,
2013-06-18 19:10:00,69.4,63.6,0.00,West,270,0.0,0.0,82,0.00,,,0.02,WUHU216HW,2013-06-18 23:10:00,
2013-06-18 19:15:00,69.4,63.6,0.00,West,270,0.0,0.0,82,0.00,,,0.02,WUHU216HW,2013-06-18 23:15:00,
2013-06-18 19:20:00,69.4,63.6,0.00,WNW,293,0.0,0.0,82,0.00,,,0.02,WUHU216HW,2013-06-18 23:20:00,
2013-06-18 19:25:00,69.4,63.6,0.00,NW,315,0.0,0.0,82,0.00,,,0.02,WUHU216HW,2013-06-18 23:25:00,
2013-06-18 19:30:00,69.4,63.6,0.00,WNW,293,0.0,0.0,82,0.00,,,0.02,WUHU216HW,2013-06-18 23:30:00,
2013-06-18 19:35:00,69.2,63.5,0.00,WNW,293,0.0,0.0,82,0.00,,,0.02,WUHU216HW,2013-06-18 23:35:00,
2013-06-18 19:40:00,69.0,63.3,0.00,WNW,293,0.0,0.0,82,0.00,,,0.02,WUHU216HW,2013-06-18 23:40:00,
2013-06-18 19:45:00,69.0,63.3,0.00,WNW,293,0.0,0.0,82,0.00,,,0.02,WUHU216HW,2013-06-18 23:45:00,
2013-06-18 19:50:00,68.9,63.1,0.00,SSE,158,0.0,0.0,82,0.00,,,0.02,WUHU216HW,2013-06-18 23:50:00,
2013-06-18 19:55:00,68.7,62.9,0.00,WNW,293,0.0,0.0,82,0.00,,,0.02,WUHU216HW,2013-06-18 23:55:00,
2013-06-18 20:00:00,68.7,62.6,0.00,WNW,293,0.0,0.0,81,0.00,,,0.02,WUHU216HW,2013-06-19 00:00:00,
2013-06-18 20:05:00,68.5,62.5,0.00,WNW,293,0.0,0.0,81,0.00,,,0.02,WUHU216HW,2013-06-19 00:05:00,
2013-06-18 20:10:00,68.3,62.6,0.00,West,270,0.0,0.0,81,0.00,,,0.02,WUHU216HW,2013-06-19 00:10:00,
2013-06-18 20:15:00,68.1,62.5,0.00,WNW,293,0.0,0.0,82,0.00,,,0.02,WUHU216HW,2013-06-19 00:15:00,
2013-06-18 20:20:00,68.0,62.3,0.00,West,270,0.0,0.0,82,0.00,,,0.02,WUHU216HW,2013-06-19 00:20:00,
2013-06-18 20:25:00,67.8,62.1,0.00,West,270,0.0,0.0,82,0.00,,,0.02,WUHU216HW,2013-06-19 00:25:00,
2013-06-18 20:30:00,67.8,62.1,0.00,WNW,293,0.0,0.0,82,0.00,,,0.02,WUHU216HW,2013-06-19 00:30:00,
2013-06-18 20:35:00,67.6,61.9,0.00,WNW,293,0.0,0.0,82,0.00,,,0.02,WUHU216HW,2013-06-19 00:35:00,
2013-06-18 20:40:00,67.6,61.9,0.00,WNW,293,0.0,0.0,82,0.00,,,0.02,WUHU216HW,2013-06-19 00:40:00,
2013-06-18 20:45:00,67.6,61.9,0.00,West,270,0.0,0.0,82,0.00,,,0.02,WUHU216HW,2013-06-19 00:45:00,
2013-06-18 20:50:00,67.2,61.9,0.00,West,270,0.0,0.0,83,0.00,,,0.02,WUHU216HW,2013-06-19 00:50:00,
2013-06-18 20:55:00,67.1,61.7,0.00,West,270,0.0,0.0,83,0.00,,,0.02,WUHU216HW,2013-06-19 00:55:00,
2013-06-18 21:00:00,66.9,61.5,0.00,WNW,293,0.0,0.0,83,0.00,,,0.02,WUHU216HW,2013-06-19 01:00:00,
2013-06-18 21:05:00,66.7,61.4,0.00,WNW,293,0.0,0.0,83,0.00,,,0.02,WUHU216HW,2013-06-19 01:05:00,
2013-06-18 21:10:00,66.5,61.2,0.00,WNW,293,0.0,0.0,83,0.00,,,0.02,WUHU216HW,2013-06-19 01:10:00,
2013-06-18 21:15:00,66.2,60.8,0.00,WNW,293,0.0,0.0,83,0.00,,,0.02,WUHU216HW,2013-06-19 01:15:00,
2013-06-18 21:20:00,66.0,61.0,0.00,WNW,293,0.0,0.0,84,0.00,,,0.02,WUHU216HW,2013-06-19 01:20:00,
2013-06-18 21:25:00,65.8,60.8,0.00,WNW,293,0.0,0.0,84,0.00,,,0.02,WUHU216HW,2013-06-19 01:25:00,
2013-06-18 21:30:00,65.8,60.8,0.00,WNW,293,0.0,0.0,84,0.00,,,0.02,WUHU216HW,2013-06-19 01:30:00,
2013-06-18 21:35:00,65.8,60.8,0.00,WNW,293,0.0,0.0,84,0.00,,,0.02,WUHU216HW,2013-06-19 01:35:00,
2013-06-18 21:40:00,65.8,60.8,0.00,WNW,293,0.0,0.0,84,0.00,,,0.02,WUHU216HW,2013-06-19 01:40:00,
2013-06-18 21:45:00,65.8,60.8,0.00,WNW,293,0.0,0.0,84,0.00,,,0.02,WUHU216HW,2013-06-19 01:45:00,
2013-06-18 21:50:00,65.8,60.8,0.00,WNW,293,0.0,0.0,84,0.00,,,0.02,WUHU216HW,2013-06-19 01:50:00,
2013-06-18 21:55:00,65.8,61.1,0.00,WNW,293,0.0,0.0,85,0.00,,,0.02,WUHU216HW,2013-06-19 01:55:00,
2013-06-18 22:00:00,65.8,61.1,0.00,WNW,293,0.0,0.0,85,0.00,,,0.02,WUHU216HW,2013-06-19 02:00:00,
2013-06-18 22:05:00,65.4,60.8,0.00,WNW,293,0.0,0.0,85,0.00,,,0.02,WUHU216HW,2013-06-19 02:05:00,
2013-06-18 22:10:00,65.4,60.8,0.00,WNW,293,0.0,0.0,85,0.00,,,0.02,WUHU216HW,2013-06-19 02:10:00,
2013-06-18 22:15:00,65.3,60.6,0.00,WNW,293,0.0,0.0,85,0.00,,,0.02,WUHU216HW,2013-06-19 02:15:00,
2013-06-18 22:20:00,65.1,60.4,0.00,WNW,293,0.0,0.0,85,0.00,,,0.02,WUHU216HW,2013-06-19 02:20:00,
2013-06-18 22:25:00,65.1,60.4,0.00,WNW,293,0.0,0.0,85,0.00,,,0.02,WUHU216HW,2013-06-19 02:25:00,
2013-06-18 22:30:00,64.9,60.3,0.00,WNW,293,0.0,0.0,85,0.00,,,0.02,WUHU216HW,2013-06-19 02:30:00,
2013-06-18 22:35:00,64.9,60.3,0.00,WNW,293,0.0,0.0,85,0.00,,,0.02,WUHU216HW,2013-06-19 02:35:00,
2013-06-18 22:40:00,64.5,59.9,0.00,WNW,293,0.0,0.0,85,0.00,,,0.02,WUHU216HW,2013-06-19 02:40:00,
2013-06-18 22:45:00,64.5,60.3,0.00,WNW,293,0.0,0.0,86,0.00,,,0.02,WUHU216HW,2013-06-19 02:45:00,
2013-06-18 22:50:00,64.2,59.9,0.00,WNW,293,0.0,0.0,86,0.00,,,0.02,WUHU216HW,2013-06-19 02:50:00,
2013-06-18 22:55:00,64.0,59.9,0.00,WNW,293,0.0,0.0,86,0.00,,,0.02,WUHU216HW,2013-06-19 02:55:00,
2013-06-18 23:00:00,64.0,59.7,0.00,WNW,293,0.0,0.0,86,0.00,,,0.02,WUHU216HW,2013-06-19 03:00:00,
2013-06-18 23:05:00,63.8,59.6,0.00,WNW,293,0.0,0.0,86,0.00,,,0.02,WUHU216HW,2013-06-19 03:05:00,
2013-06-18 23:10:00,63.6,59.4,0.00,WNW,293,0.0,0.0,86,0.00,,,0.02,WUHU216HW,2013-06-19 03:10:00,
2013-06-18 23:15:00,63.6,59.4,0.00,WNW,293,0.0,0.0,86,0.00,,,0.02,WUHU216HW,2013-06-19 03:15:00,
2013-06-18 23:20:00,63.6,59.4,0.00,WNW,293,0.0,0.0,86,0.00,,,0.02,WUHU216HW,2013-06-19 03:20:00,
2013-06-18 23:25:00,63.6,59.4,0.00,WNW,293,0.0,0.0,86,0.00,,,0.02,WUHU216HW,2013-06-19 03:25:00,
2013-06-18 23:30:00,63.6,59.4,0.00,WNW,293,0.0,0.0,86,0.00,,,0.02,WUHU216HW,2013-06-19 03:30:00,
2013-06-18 23:35:00,63.3,59.0,0.00,WNW,293,0.0,0.0,86,0.00,,,0.02,WUHU216HW,2013-06-19 03:35:00,
2013-06-18 23:40:00,63.3,59.4,0.00,WNW,293,0.0,0.0,87,0.00,,,0.02,WUHU216HW,2013-06-19 03:40:00,
2013-06-18 23:45:00,63.1,59.2,0.00,WNW,293,0.0,0.0,87,0.00,,,0.02,WUHU216HW,2013-06-19 03:45:00,
2013-06-18 23:50:00,63.1,59.2,0.00,WNW,293,0.0,0.0,87,0.00,,,0.02,WUHU216HW,2013-06-19 03:50:00,
2013-06-18 23:55:00,63.1,59.2,0.00,WNW,293,0.0,0.0,87,0.00,,,0.02,WUHU216HW,2013-06-19 03:55:00,